Overview Statistics Trail Chart Weather Telemetry Raw packets
 

This is the latest recevied weather packets stored in our database for station/object W5ITZ. If no packets are shown the sender has not sent any weather packets the latest 10 day(s).

<< 62 63 64 65 66 67 68 >>
Time Temp. Humidity Pressure Rain* Wind** Luminosity Snow
1787796499 28.89° C 78% 1013.4 hPa 0 mm - 0 W/m² -
1787796195 28.89° C 78% 1013.7 hPa 0 mm - 0 W/m² -
1787795893 28.89° C 77% 1013.4 hPa 0 mm - 0 W/m² -
1787795588 29.44° C 77% 1013.7 hPa 0 mm - 0 W/m² -
1787795288 29.44° C 77% 1013.5 hPa 0 mm - 0 W/m² -
1787794986 29.44° C 76% 1013.6 hPa 0 mm - 0 W/m² -
1787794682 29.44° C 75% 1013.4 hPa 0 mm - 0 W/m² -
1787794377 29.44° C 74% 1013.4 hPa 0 mm - 0 W/m² -
1787794077 30° C 73% 1013.5 hPa 0 mm - 0 W/m² -
1787793774 30° C 73% 1013.4 hPa 0 mm - 0 W/m² -
1787793473 30° C 72% 1013.4 hPa 0 mm - 0 W/m² -
1787793169 30° C 70% 1013.4 hPa 0 mm - 0 W/m² -
1787792864 30° C 70% 1013.2 hPa 0 mm - 0 W/m² -
1787792558 30.56° C 70% 1013.2 hPa 0 mm - 1 W/m² -
1787792256 30.56° C 69% 1013 hPa 0 mm - 3 W/m² -
1787791954 30.56° C 68% 1013.2 hPa 0 mm - 5 W/m² -
1787791648 31.11° C 66% 1013.1 hPa 0 mm - 8 W/m² -
1787791345 31.11° C 64% 1013.2 hPa 0 mm - 12 W/m² -
1787791039 31.67° C 63% 1013.1 hPa 0 mm - 17 W/m² -
1787790736 31.67° C 62% 1013.1 hPa 0 mm - 22 W/m² -
1787790429 31.67° C 60% 1012.8 hPa 0 mm - 28 W/m² -
1787790125 32.22° C 59% 1013.1 hPa 0 mm - 35 W/m² -
1787789821 32.22° C 58% 1013 hPa 0 mm - 42 W/m² -
1787789521 32.78° C 57% 1013.3 hPa 0 mm - 49 W/m² -
1787789219 32.78° C 56% 1013.4 hPa 0 mm - 57 W/m² -

* Rain latest hour (hover to see other rain measurements)
** Current wind speed in m/s (hover to see current wind gust speed)